Погода в Шарипове

Россия / Курганская область     54°50′50″N   63°27′49″E
темп.,
°C
ветер,
м/с
пор.,
м/с
влажн.,
%
обл.,
%
осадки,
мм/ч
давл.,
гПа
погр.,
м
17 мая, вт
вт1723:00+11зюз512745 0.3 999311
02:00+8юз38865 0.0 1000218
05:00+8зюз611895 0.0 1000343
08:00+12зюз7107015 0.0 1000712
11:00+16зюз795355 0.1 10011723
14:00+16зюз694961 0.0 10022027
17:00+16зюз4652100 0.0 1003411
20:00+15ююз335678 0.0 100349
18 мая, ср
ср1823:00+11ююз47675 0.0 1004106
02:00+10юз4876100 0.0 1005139
05:00+9ююз478131 0.0 1005142
08:00+13юз5667100 0.0 1006523
11:00+16юз5654100 0.0 10051303
14:00+18юз56345 0.0 10042346
17:00+19ююз673539 0.0 10022287
20:00+15зсз3457100 0.1 1000155
19 мая, чт
чт1923:00+9з3688100 4.9 1001445
02:00+9юз3887100 1.1 1000551
05:00+8зюз61286100 1.1 1001397
08:00+10зюз7107482 0.0 1002721
11:00+13зюз8105897 0.1 10031696
14:00+11з10136598 0.6 10051214
17:00+11зсз813524 0.6 10071644
20:00+11зюз485799 0.0 1006280
20 мая, пт
пт2023:00+9ю336330 0.0 100941
02:00+9юз41170100 0.0 1008317
05:00+8зюз3687100 0.0 1008153
08:00+10зюз3370100 0.0 1009491
11:00+12юз3457100 0.0 10081241
14:00+10юз2277100 1.4 1007487
17:00+10св1277100 3.2 1004479
20:00+8св2488100 2.7 1003322
21 мая, сб
сб2123:00+8с2686100 3.3 1002361
02:00+6сз2386100 0.0 100243
05:00+5сз2385100 0.0 100262
08:00+8зсз216594 0.0 1002304
11:00+12юз1147100 0.0 10011275
14:00+14ююв2138100 0.0 9991768
17:00+14ююв2238100 0.0 9981982
20:00+10з4672100 0.4 999291